Hourly Data Report for October 06, 2017

All times are specified in Local Standard Time (LST). Add 1 hour to adjust for Daylight Saving Time where and when it is observed.

GRETNA (AUT)
MANITOBA

49°01'51.004" N
97°33'36.003" W
252.60 m
5021220
71441
WGN

Download Data

Hourly Data (October 2017)
Hourly Data Report for October 6, 2017
Temp Definition
°C
Dew Point Temp Definition
°C
Rel Hum Definition
%
Wind Dir Definition
10's deg

Wind Spd Definition
km/h
Visibility Definition
km
Stn Press Definition
kPa
Hmdx Definition


Wind Chill Definition


Weather Definition


TIME
00:00 6.0 1.9 75 19 10   98.77     LegendNANA
01:00 6.7 1.9 71 21 11   98.76     LegendNANA
02:00 5.7 1.3 74 21 12   98.71     LegendNANA
03:00 3.8 0.8 81 19 11   98.64     LegendNANA
04:00 5.4 1.5 76 19 13   98.58     LegendNANA
05:00 4.8 1.1 77 19 15   98.56     LegendNANA
06:00 3.8 0.9 81 20 15   98.52     LegendNANA
07:00 3.8 1.0 82 20 12   98.44     LegendNANA
08:00 6.3 2.1 74 19 11   98.39     LegendNANA
09:00 9.1 2.7 64 19 13   98.34     LegendNANA
10:00 13.2 3.4 52 20 12   98.30     LegendNANA
11:00 15.7 2.9 42 20 16   98.23     LegendNANA
12:00 17.0 2.7 38 21 22   98.09     LegendNANA
13:00 17.4 1.1 33 22 22   97.97     LegendNANA
14:00 18.0 1.9 34 23 24   97.82     LegendNANA
15:00 18.6 3.2 36 21 19   97.70     LegendNANA
16:00 18.5 2.5 34 22 20   97.60     LegendNANA
17:00 17.6 4.0 40 21 16   97.54     LegendNANA
18:00 15.1 4.4 49 19 12   97.48     LegendNANA
19:00 10.4 4.2 65 17 16   97.41     LegendNANA
20:00 11.8 4.2 60 18 22   97.33     LegendNANA
21:00 11.5 4.1 60 18 24   97.25     LegendNANA
22:00 9.9 4.0 66 18 20   97.18     LegendNANA
23:00 8.8 3.9 71 17 20   97.06     LegendNANA

Notes on Data Quality.

Legend

  • E = Estimated
  • M = Missing
  • NA = Not Available
  • ‡ = Partner data that is not subject to review by the National Climate Archives
Date modified: